Flag for Poland Weather past 2 weeks in Ruda Śląska, Poland

Now
36 °F

Passing clouds.


Feels Like: 31 °F
Forecast: 35 / 43 °F
Wind: 6 mph from Southwest

Location: Katowice Airport

Current Time: Mar 31, 2015 at 7:35:04 AM

Latest Report: Mar 31, 2015 at 7:00 AM


Visibility: N/A

Pressure: 29.62 "Hg

Humidity: 75%

Dew point: 28 °F

Location of Ruda ŚląskaLocation

Historic Weather in Ruda Śląska — Graph

°F

Ruda Śląska temperature yesterday

Maximum temperature yesterday: 48 °F (at 2:00 AM)
Minimum temperature yesterday: 37 °F (at 4:30 PM)
Average temperature yesterday: 44 °F

Past Weeks' High & Low Weather Summary

 TemperatureHumidityPressure
High66 °F (Mar 25, 2:00 PM)100% (Mar 20, 2:30 AM)30.57 "Hg (Mar 20, 2:30 AM)
Low19 °F (Mar 23, 5:00 AM)25% (Mar 23, 1:30 PM)29.24 "Hg (Mar 30, 5:00 AM)
Average43 °F68%30.03 "Hg
* Reported Mar 16 5:00 AM — Mar 31 6:30 AM, Ruda Śląska, Weather by CustomWeather, © 2015

Note: Actual official high and low records may vary slightly from our data, if they occured in-between our weather recording intervals... More about our weather records

Advertising

Ruda Śląska weather history for previous 24 hours

 ConditionsComfort  
Time TempWeatherWind HumidityBarometerVisibility
6:30 AM
Tue, Mar 31
37 °FPassing clouds.7 mph70%29.65 "HgN/A
6:00 AM36 °FPassing clouds.9 mph75%29.65 "HgN/A
5:30 AM37 °FPassing clouds.13 mph70%29.68 "HgN/A
5:00 AM37 °FPassing clouds.16 mph70%29.68 "HgN/A
4:30 AM37 °FPassing clouds.15 mph70%29.68 "HgN/A
4:00 AM37 °FPassing clouds.16 mph75%29.68 "HgN/A
3:30 AM39 °FPassing clouds.16 mph70%29.68 "HgN/A
3:00 AM39 °FPassing clouds.18 mph70%29.68 "HgN/A
2:30 AM39 °FPassing clouds.20 mph70%29.68 "HgN/A
2:00 AM39 °FPassing clouds.16 mph70%29.68 "HgN/A
1:30 AM39 °FPartly cloudy.17 mph70%29.65 "HgN/A
1:00 AM39 °FPassing clouds.22 mph70%29.65 "HgN/A
12:30 AM39 °FPassing clouds.22 mph70%29.65 "HgN/A
12:00 AM39 °FPassing clouds.21 mph75%29.62 "HgN/A
11:00 PM
Mon, Mar 30
41 °FPassing clouds.20 mph70%29.59 "HgN/A
10:30 PM41 °FSprinkles. Passing clouds.18 mph70%29.56 "HgN/A
10:00 PM41 °FSprinkles. Passing clouds.14 mph76%29.56 "HgN/A
9:30 PM41 °FSprinkles. Partly cloudy.15 mph76%29.56 "HgN/A
9:00 PM41 °FSprinkles. Partly cloudy.13 mph76%29.53 "HgN/A
8:30 PM41 °FPartly cloudy.18 mph76%29.53 "HgN/A
8:00 PM41 °FBroken clouds.22 mph76%29.50 "HgN/A
7:30 PM41 °FPartly sunny.18 mph76%29.50 "HgN/A
7:00 PM39 °FSprinkles. Partly sunny.15 mph81%29.47 "HgN/A
6:30 PM43 °FSprinkles. Partly sunny.13 mph71%29.45 "HgN/A
6:00 PM43 °FPassing clouds.20 mph71%29.45 "HgN/A
5:30 PM41 °FPassing clouds.15 mph81%29.45 "HgN/A
5:00 PM41 °FPassing clouds.20 mph81%29.42 "HgN/A
4:30 PM37 °FRain showers. Broken clouds.30 mph93%29.42 "HgN/A
4:00 PM45 °FScattered clouds.17 mph66%29.39 "HgN/A
3:30 PM43 °FScattered clouds.22 mph76%29.39 "HgN/A
3:00 PM41 °FScattered clouds.16 mph87%29.36 "HgN/A
2:30 PM39 °FSprinkles. Broken clouds.18 mph87%29.36 "HgN/A
2:00 PM43 °FSprinkles. Broken clouds.16 mph76%29.33 "HgN/A
1:30 PM46 °FScattered clouds.17 mph62%29.30 "HgN/A
1:00 PM48 °FScattered clouds.15 mph58%29.30 "HgN/A
12:30 PM48 °FScattered clouds.15 mph66%29.33 "HgN/A
12:00 PM46 °FSprinkles. Scattered clouds.10 mph76%29.33 "HgN/A
11:30 AM45 °FSprinkles. Scattered clouds.15 mph76%29.33 "HgN/A
11:00 AM48 °FPartly sunny.17 mph66%29.33 "HgN/A
10:30 AM48 °FScattered clouds.17 mph66%29.33 "HgN/A
10:00 AM46 °FBroken clouds.18 mph71%29.33 "HgN/A
9:30 AM46 °FScattered clouds.13 mph76%29.33 "HgN/A
9:00 AM46 °FScattered clouds.14 mph71%29.33 "HgN/A
8:30 AM45 °FScattered clouds.14 mph76%29.33 "HgN/A
8:00 AM45 °FScattered clouds.13 mph76%29.33 "HgN/A
7:30 AM45 °FScattered clouds.15 mph76%29.30 "HgN/A
7:00 AM45 °FSprinkles. Partly cloudy.18 mph81%29.30 "HgN/A
Weather by CustomWeather, © 2015

See weather overviewHow to use our weather pages